H1 CPF 2 NER 2023 6 5 9 156 01 glonass135 H2 1600801 9135 41330 2023 6 5 0 0 0 2023 6 8 23 45 0 900 1 1 0 0 0 1 H9 10 0 60100 0.00000 0 -10800195.733 1492057.118 23063458.657 10 0 60100 900.00000 0 -10505232.601 -1350292.506 23204858.560 10 0 60100 1800.00000 0 -10425087.134 -4196844.124 22895620.680 10 0 60100 2700.00000 0 -10556778.528 -6976422.648 22141599.738 10 0 60100 3600.00000 0 -10884903.011 -9620038.121 20957295.757 10 0 60100 4500.00000 0 -11382325.227 -12063521.313 19365584.516 10 0 60100 5400.00000 0 -12011381.991 -14249965.182 17397284.244 10 0 60100 6300.00000 0 -12725548.536 -16131870.649 15090565.881 10 0 60100 7200.00000 0 -13471497.616 -17672907.031 12490217.450 10 0 60100 8100.00000 0 -14191464.804 -18849213.376 9646776.156 10 0 60100 9000.00000 0 -14825819.950 -19650186.012 6615544.720 10 0 60100 9900.00000 0 -15315735.515 -20078719.200 3455511.146 10 0 60100 10800.00000 0 -15605837.967 -20150888.946 228193.407 10 0 60100 11700.00000 0 -15646728.803 -19895093.738 -3003567.699 10 0 60100 12600.00000 0 -15397267.071 -19350689.222 -6176842.862 10 0 60100 13500.00000 0 -14826515.371 -18566175.485 -9229850.479 10 0 60100 14400.00000 0 -13915265.644 -17597014.794 -12103169.464 10 0 60100 15300.00000 0 -12657079.128 -16503173.308 -14740903.829 10 0 60100 16200.00000 0 -11058795.667 -15346491.949 -17091775.520 10 0 60100 17100.00000 0 -9140490.280 -14187998.543 -19110123.683 10 0 60100 18000.00000 0 -6934878.454 -13085275.482 -20756790.748 10 0 60100 18900.00000 0 -4486194.928 -12089994.286 -21999878.367 10 0 60100 19800.00000 0 -1848592.869 -11245720.857 -22815359.109 10 0 60100 20700.00000 0 915869.671 -10586083.330 -23187532.868 10 0 60100 21600.00000 0 3739572.165 -10133378.650 -23109320.155 10 0 60100 22500.00000 0 6551905.570 -9897675.276 -22582387.646 10 0 60100 23400.00000 0 9281971.256 -9876448.348 -21617104.528 10 0 60100 24300.00000 0 11861293.448 -10054761.269 -20232331.357 10 0 60100 25200.00000 0 14226433.493 -10405984.770 -18455046.141 10 0 60100 26100.00000 0 16321398.503 -10893022.176 -16319815.304 10 0 60100 27000.00000 0 18099745.666 -11469988.524 -13868119.988 10 0 60100 27900.00000 0 19526296.197 -12084272.405 -11147550.673 10 0 60100 28800.00000 0 20578389.066 -12678893.524 -8210885.594 10 0 60100 29700.00000 0 21246623.752 -13195056.719 -5115070.500 10 0 60100 30600.00000 0 21535062.396 -13574795.027 -1920119.160 10 0 60100 31500.00000 0 21460884.106 -13763590.685 1312044.449 10 0 60100 32400.00000 0 21053506.818 -13712863.841 4518780.214 10 0 60100 33300.00000 0 20353214.231 -13382224.242 7637939.521 10 0 60100 34200.00000 0 19409345.747 -12741390.965 10609063.405 10 0 60100 35100.00000 0 18278125.516 -11771699.036 13374548.417 10 0 60100 36000.00000 0 17020221.529 -10467128.891 15880758.088 10 0 60100 36900.00000 0 15698136.904 -8834814.404 18079058.813 10 0 60100 37800.00000 0 14373542.376 -6895006.800 19926760.561 10 0 60100 38700.00000 0 13104661.400 -4680494.245 21387944.517 10 0 60100 39600.00000 0 11943817.077 -2235499.485 22434161.903 10 0 60100 40500.00000 0 10935243.415 385900.527 23044990.522 10 0 60100 41400.00000 0 10113252.472 3121769.191 23208438.174 10 0 60100 42300.00000 0 9500834.282 5904637.916 22921184.763 10 0 60100 43200.00000 0 9108748.491 8664071.729 22188657.831 10 0 60100 44100.00000 0 8935146.245 11329367.542 21024939.233 10 0 60100 45000.00000 0 8965738.795 13832273.793 19452503.757 10 0 60100 45900.00000 0 9174506.326 16109618.884 17501793.696 10 0 60100 46800.00000 0 9524917.753 18105739.113 15210636.539 10 0 60100 47700.00000 0 9971610.505 19774604.684 12623516.152 10 0 60100 48600.00000 0 10462459.576 21081554.635 9790710.945 10 0 60100 49500.00000 0 10940948.260 22004567.704 6767315.372 10 0 60100 50400.00000 0 11348739.798 22535015.429 3612163.894 10 0 60100 51300.00000 0 11628340.170 22677865.754 386678.747 10 0 60100 52200.00000 0 11725738.109 22451328.615 -2846335.251 10 0 60100 53100.00000 0 11592909.061 21885958.934 -6023924.274 10 0 60100 54000.00000 0 11190075.581 21023255.542 -9084222.189 10 0 60100 54900.00000 0 10487626.986 19913816.222 -11967665.059 10 0 60100 55800.00000 0 9467615.755 18615127.888 -14618158.601 10 0 60100 56700.00000 0 8124766.350 17189086.403 -16984175.005 10 0 60100 57600.00000 0 6466953.066 15699351.754 -19019757.218 10 0 60100 58500.00000 0 4515126.217 14208650.920 -20685410.954 10 0 60100 59400.00000 0 2302689.396 12776142.538 -21948867.329 10 0 60100 60300.00000 0 -125646.281 11454954.257 -22785701.887 10 0 60100 61200.00000 0 -2715483.105 10289995.897 -23179798.816 10 0 60100 62100.00000 0 -5404765.326 9316139.372 -23123652.368 10 0 60100 63000.00000 0 -8126130.983 8556840.501 -22618500.683 10 0 60100 63900.00000 0 -10809489.444 8023259.033 -21674290.442 10 0 60100 64800.00000 0 -13384718.008 7713912.109 -20309473.864 10 0 60100 65700.00000 0 -15784366.280 7614874.069 -18550642.645 10 0 60100 66600.00000 0 -17946256.814 7700512.660 -16432006.345 10 0 60100 67500.00000 0 -19815875.074 7934729.440 -13994725.516 10 0 60100 68400.00000 0 -21348450.524 8272651.222 -11286112.464 10 0 60100 69300.00000 0 -22510643.452 8662700.711 -8358714.945 10 0 60100 70200.00000 0 -23281768.536 9048958.796 -5269300.306 10 0 60100 71100.00000 0 -23654505.251 9373718.819 -2077759.332 10 0 60100 72000.00000 0 -23635066.508 9580125.217 1154049.260 10 0 60100 72900.00000 0 -23242819.316 9614785.401 4363491.715 10 0 60100 73800.00000 0 -22509373.959 9430244.850 7488366.800 10 0 60100 74700.00000 0 -21477180.212 8987221.056 10468104.984 10 0 60100 75600.00000 0 -20197689.503 8256501.996 13244936.437 10 0 60100 76500.00000 0 -18729159.899 7220428.660 15765005.637 10 0 60100 77400.00000 0 -17134195.539 5873898.473 17979411.408 10 0 60100 78300.00000 0 -15477123.085 4224846.232 19845152.687 10 0 60100 79200.00000 0 -13821314.458 2294180.831 21325962.052 10 0 60100 80100.00000 0 -12226567.313 115178.567 22393011.157 10 0 60100 81000.00000 0 -10746652.332 -2267643.686 23025474.504 10 0 60100 81900.00000 0 -9427129.488 -4800130.577 23210940.581 10 0 60100 82800.00000 0 -8303524.404 -7420500.935 22945662.027 10 0 60100 83700.00000 0 -7399941.050 -10061689.096 22234639.434 10 0 60100 84600.00000 0 -6728168.932 -12653919.066 21091536.308 10 0 60100 85500.00000 0 -6287322.502 -15127405.524 19538425.881 10 0 60101 0.00000 0 -6064028.185 -17415069.782 17605373.757 10 0 60101 900.00000 0 -6033151.432 -19455159.021 15329862.317 10 0 60101 1800.00000 0 -6159033.652 -21193656.375 12756069.804 10 0 60101 2700.00000 0 -6397186.504 -22586384.867 9934013.929 10 0 60101 3600.00000 0 -6696372.129 -23600713.452 6918578.748 10 0 60101 4500.00000 0 -7000980.662 -24216794.299 3768442.855 10 0 60101 5400.00000 0 -7253603.538 -24428278.619 544930.277 10 0 60101 6300.00000 0 -7397692.446 -24242480.695 -2689192.766 10 0 60101 7200.00000 0 -7380189.828 -23679983.214 -5870950.680 10 0 60101 8100.00000 0 -7154017.956 -22773700.927 -8938395.681 10 0 60101 9000.00000 0 -6680319.593 -21567442.815 -11831823.964 10 0 60101 9900.00000 0 -5930353.991 -20114034.345 -14494945.990 10 0 60101 10800.00000 0 -4886966.807 -18473080.049 -16875987.221 10 0 60101 11700.00000 0 -3545570.907 -16708461.756 -18928697.310 10 0 60101 12600.00000 0 -1914595.995 -14885678.700 -20613247.921 10 0 60101 13500.00000 0 -15387.708 -13069141.962 -21897001.949 10 0 60101 14400.00000 0 2118439.923 -11319537.063 -22755139.781 10 0 60101 15300.00000 0 4442171.624 -9691365.146 -23171131.241 10 0 60101 16200.00000 0 6901628.995 -8230765.047 -23137045.113 10 0 60101 17100.00000 0 9435211.382 -6973706.294 -22653691.246 10 0 60101 18000.00000 0 11976254.679 -5944627.186 -21730593.519 10 0 60101 18900.00000 0 14455610.266 -5155573.159 -20385795.014 10 0 60101 19800.00000 0 16804337.347 -4605869.634 -18645499.833 10 0 60101 20700.00000 0 18956397.390 -4282341.220 -16543558.918 10 0 60101 21600.00000 0 20851239.485 -4160066.320 -14120810.026 10 0 60101 22500.00000 0 22436169.954 -4203634.058 -11424284.618 10 0 60101 23400.00000 0 23668408.582 -4368849.513 -8506296.900 10 0 60101 24300.00000 0 24516746.757 -4604814.748 -5423432.383 10 0 60101 25200.00000 0 24962739.350 -4856297.485 -2235455.183 10 0 60101 26100.00000 0 25001381.376 -5066287.396 995845.082 10 0 60101 27000.00000 0 24641241.876 -5178632.163 4207844.847 10 0 60101 27900.00000 0 23904049.908 -5140642.183 7338293.964 10 0 60101 28800.00000 0 22823750.224 -4905554.061 10326515.782 10 0 60101 29700.00000 0 21445068.185 -4434748.961 13114577.160 10 0 60101 30600.00000 0 19821643.745 -3699631.985 15648406.171 10 0 60101 31500.00000 0 18013812.173 -2683092.874 17878836.244 10 0 60101 32400.00000 0 16086123.753 -1380485.630 19762556.963 10 0 60101 33300.00000 0 14104705.416 199915.397 21262953.487 10 0 60101 34200.00000 0 12134573.863 2037003.773 22350818.599 10 0 60101 35100.00000 0 10237011.631 4097471.826 23004923.714 10 0 60101 36000.00000 0 8467115.048 6336959.852 23212437.732 10 0 60101 36900.00000 0 6871615.989 8701677.840 22969185.276 10 0 60101 37800.00000 0 5487068.044 11130434.120 22279738.761 10 0 60101 38700.00000 0 4338472.758 13556988.193 21157341.699 10 0 60101 39600.00000 0 3438403.385 15912631.076 19623663.716 10 0 60101 40500.00000 0 2786662.948 18128886.572 17708390.977 10 0 60101 41400.00000 0 2370491.029 20140221.292 15448658.837 10 0 60101 42300.00000 0 2165310.675 21886650.236 12888336.806 10 0 60101 43200.00000 0 2135983.854 23316128.618 10077178.980 10 0 60101 44100.00000 0 2238522.219 24386629.145 7069856.066 10 0 60101 45000.00000 0 2422180.310 25067816.770 3924887.832 10 0 60101 45900.00000 0 2631841.785 25342249.827 703497.199 10 0 60101 46800.00000 0 2810596.458 25206056.393 -2531590.984 10 0 60101 47700.00000 0 2902397.565 24669057.032 -5717381.962 10 0 60101 48600.00000 0 2854685.106 23754328.715 -8791848.660 10 0 60101 49500.00000 0 2620862.521 22497228.631 -11695149.488 10 0 60101 50400.00000 0 2162520.345 20943919.647 -14370801.434 10 0 60101 51300.00000 0 1451311.414 19149460.355 -16766784.706 10 0 60101 52200.00000 0 470397.333 17175541.049 -18836556.861 10 0 60101 53100.00000 0 -784595.624 15087961.669 -20539956.455 10 0 60101 54000.00000 0 -2305151.982 12953958.316 -21843978.874 10 0 60101 54900.00000 0 -4069992.048 10839490.777 -22723409.833 10 0 60101 55800.00000 0 -6045741.317 8806604.632 -23161305.055 10 0 60101 56700.00000 0 -8188116.349 6910977.739 -23149307.836 10 0 60101 57600.00000 0 -10443577.620 5199752.660 -22687799.396 10 0 60101 58500.00000 0 -12751380.469 3709744.182 -21785880.105 10 0 60101 59400.00000 0 -15045938.883 2466095.032 -20461182.813 10 0 60101 60300.00000 0 -17259404.011 1481434.008 -18739522.543 10 0 60101 61200.00000 0 -19324350.546 755569.678 -16654389.788 10 0 60101 62100.00000 0 -21176459.726 275730.475 -14246297.398 10 0 60101 63000.00000 0 -22757087.963 17339.325 -11561993.706 10 0 60101 63900.00000 0 -24015614.791 -54711.239 -8653556.979 10 0 60101 64800.00000 0 -24911473.043 15661.744 -5577388.467 10 0 60101 65700.00000 0 -25415777.235 177824.941 -2393123.207 10 0 60101 66600.00000 0 -25512482.813 376805.767 837520.658 10 0 60101 67500.00000 0 -25199028.296 555852.723 4051932.117 10 0 60101 68400.00000 0 -24486433.801 659071.002 7187814.439 10 0 60101 69300.00000 0 -23398851.940 634022.164 10184386.167 10 0 60101 70200.00000 0 -21972589.767 434178.258 12983553.134 10 0 60101 71100.00000 0 -20254642.336 21126.779 15531029.204 10 0 60101 72000.00000 0 -18300798.640 -633566.810 17777384.467 10 0 60101 72900.00000 0 -16173398.344 -1546918.004 19679001.001 10 0 60101 73800.00000 0 -13938832.136 -2723565.252 21198918.115 10 0 60101 74700.00000 0 -11664889.085 -4155336.604 22307550.947 10 0 60101 75600.00000 0 -9418060.754 -5821360.879 22983268.671 10 0 60101 76500.00000 0 -7260913.574 -7688720.651 23212821.051 10 0 60101 77400.00000 0 -5249638.341 -9713621.835 22991604.753 10 0 60101 78300.00000 0 -3431878.415 -11843033.048 22323763.708 10 0 60101 79200.00000 0 -1844926.860 -14016728.253 21222120.767 10 0 60101 80100.00000 0 -514367.585 -16169648.959 19707940.980 10 0 60101 81000.00000 0 546782.802 -18234488.560 17810529.985 10 0 60101 81900.00000 0 1338396.523 -20144391.539 15566674.216 10 0 60101 82800.00000 0 1873006.112 -21835654.858 13019932.808 10 0 60101 83700.00000 0 2175035.618 -23250318.152 10219794.246 10 0 60101 84600.00000 0 2279524.258 -24338533.540 7220713.702 10 0 60101 85500.00000 0 2230396.965 -25060614.638 4081049.828 10 0 60102 0.00000 0 2078355.799 -25388677.669 861922.348 10 0 60102 900.00000 0 1878482.489 -25307804.774 -2373988.280 10 0 60102 1800.00000 0 1687655.255 -24816679.439 -5563670.326 10 0 60102 2700.00000 0 1561890.618 -23927667.407 -8645019.943 10 0 60102 3600.00000 0 1553724.597 -22666339.026 -11558060.301 10 0 60102 4500.00000 0 1709745.734 -21070453.657 -14246117.470 10 0 60102 5400.00000 0 2068385.705 -19188449.399 -16656928.933 10 0 60102 6300.00000 0 2658062.082 -17077502.334 -18743662.575 10 0 60102 7200.00000 0 3495752.505 -14801237.628 -20465826.093 10 0 60102 8100.00000 0 4586060.896 -12427189.136 -21790049.339 10 0 60102 9000.00000 0 5920815.320 -10024114.352 -22690724.997 10 0 60102 9900.00000 0 7479214.441 -7659277.103 -23150495.907 10 0 60102 10800.00000 0 9228516.433 -5395811.143 -23160580.667 10 0 60102 11700.00000 0 11125241.402 -3290273.845 -22720932.204 10 0 60102 12600.00000 0 13116837.037 -1390490.819 -21840227.265 10 0 60102 13500.00000 0 15143737.947 266220.324 -20535687.911 10 0 60102 14400.00000 0 17141732.976 1654374.903 -18832739.098 10 0 60102 15300.00000 0 19044541.998 2761141.541 -16764509.442 10 0 60102 16200.00000 0 20786495.197 3586625.838 -14371185.019 10 0 60102 17100.00000 0 22305203.599 4143607.510 -11699228.718 10 0 60102 18000.00000 0 23544109.974 4456743.800 -8800480.132 10 0 60102 18900.00000 0 24454814.241 4561274.126 -5731153.154 10 0 60102 19800.00000 0 24999076.791 4501281.579 -2550750.342 10 0 60102 20700.00000 0 25150416.430 4327585.230 679085.213 10 0 60102 21600.00000 0 24895236.522 4095352.564 3895758.689 10 0 60102 22500.00000 0 24233432.333 3861532.873 7036930.340 10 0 60102 23400.00000 0 23178454.164 3682219.923 10041717.290 10 0 60102 24300.00000 0 21756823.354 3610055.074 12851867.447 10 0 60102 25200.00000 0 20007120.895 3691780.344 15412883.242 10 0 60102 26100.00000 0 17978490.223 3966044.675 17675073.807 10 0 60102 27000.00000 0 15728715.823 4461556.100 19594515.699 10 0 60102 27900.00000 0 13321956.772 5195658.245 21133903.935 10 0 60102 28800.00000 0 10826228.631 6173391.938 22263277.131 10 0 60102 29700.00000 0 8310737.480 7387082.670 22960602.890 10 0 60102 30600.00000 0 5843176.027 8816472.857 23212212.028 10 0 60102 31500.00000 0 3487093.470 10429395.200 23013072.932 10 0 60102 32400.00000 0 1299447.815 12182960.896 22366900.203 10 0 60102 33300.00000 0 -671557.964 14025214.932 21286094.661 10 0 60102 34200.00000 0 -2388266.094 15897190.876 19791514.894 10 0 60102 35100.00000 0 -3824905.982 17735280.563 17912083.700 10 0 60102 36000.00000 0 -4968432.074 19473820.448 15684235.898 10 0 60102 36900.00000 0 -5818822.546 21047786.629 13151217.298 10 0 60102 37800.00000 0 -6388826.494 22395485.491 10362247.642 10 0 60102 38700.00000 0 -6703170.557 23461126.442 7371563.372 10 0 60102 39600.00000 0 -6797258.934 24197167.717 4237358.818 10 0 60102 40500.00000 0 -6715422.481 24566335.442 1020646.791 10 0 60102 41400.00000 0 -6508791.973 24543229.768 -2215938.484 10 0 60102 42300.00000 0 -6232886.879 24115449.327 -5409371.695 10 0 60102 43200.00000 0 -5945023.261 23284185.797 -8497474.795 10 0 60102 44100.00000 0 -5701652.192 22064262.983 -11420138.005 10 0 60102 45000.00000 0 -5555742.997 20483618.633 -14120498.447 10 0 60102 45900.00000 0 -5554323.486 18582250.958 -16546052.514 10 0 60102 46800.00000 0 -5736282.376 16410674.581 -18649679.737 10 0 60102 47700.00000 0 -6130527.611 14027951.290 -20390557.970 10 0 60102 48600.00000 0 -6754578.791 11499378.755 -21734952.281 10 0 60102 49500.00000 0 -7613653.230 8893934.325 -22656862.801 10 0 60102 50400.00000 0 -8700284.055 6281580.948 -23138519.723 10 0 60102 51300.00000 0 -9994486.167 3730547.418 -23170716.893 10 0 60102 52200.00000 0 -11464462.868 1304695.715 -22752978.568 10 0 60102 53100.00000 0 -13067823.245 -938915.921 -21893557.145 10 0 60102 54000.00000 0 -14753259.231 -2952174.142 -20609262.773 10 0 60102 54900.00000 0 -16462612.151 -4697668.518 -18925128.827 10 0 60102 55800.00000 0 -18133242.486 -6149995.115 -16873920.169 10 0 60102 56700.00000 0 -19700604.064 -7296553.403 -14495493.916 10 0 60102 57600.00000 0 -21100915.475 -8137805.302 -11836025.109 10 0 60102 58500.00000 0 -22273817.457 -8686987.494 -8947112.107 10 0 60102 59400.00000 0 -23164905.593 -8969290.772 -5884778.812 10 0 60102 60300.00000 0 -23728032.802 -9020542.328 -2708392.655 10 0 60102 61200.00000 0 -23927285.596 -8885447.389 520480.970 10 0 60102 62100.00000 0 -23738551.600 -8615464.959 3739266.041 10 0 60102 63000.00000 0 -23150612.734 -8266407.527 6885582.378 10 0 60102 63900.00000 0 -22165718.142 -7895866.053 9898448.208 10 0 60102 64800.00000 0 -20799612.504 -7560568.781 12719455.961 10 0 60102 65700.00000 0 -19081017.883 -7313785.087 15293898.932 10 0 60102 66600.00000 0 -17050589.945 -7202883.719 17571827.411 10 0 60102 67500.00000 0 -14759391.052 -7267148.315 19509014.270 10 0 60102 68400.00000 0 -12266942.693 -7535942.422 21067811.741 10 0 60102 69300.00000 0 -9638937.120 -8027301.744 22217883.040 10 0 60102 70200.00000 0 -6944702.131 -8747013.661 22936794.902 10 0 60102 71100.00000 0 -4254523.166 -9688223.878 23210459.474 10 0 60102 72000.00000 0 -1636932.965 -10831588.210 23033416.739 10 0 60102 72900.00000 0 843919.475 -12145964.792 22408951.458 10 0 60102 73800.00000 0 3130711.986 -13589619.486 21349041.565 10 0 60102 74700.00000 0 5175103.100 -15111895.578 19874138.036 10 0 60102 75600.00000 0 6939507.312 -16655279.239 18012779.373 10 0 60102 76500.00000 0 8398417.747 -18157775.169 15801047.069 10 0 60102 77400.00000 0 9539221.029 -19555493.321 13281871.628 10 0 60102 78300.00000 0 10362470.273 -20785338.135 10504201.841 10 0 60102 79200.00000 0 10881605.001 -21787686.854 7522052.993 10 0 60102 80100.00000 0 11122130.136 -22508943.313 4393452.509 10 0 60102 81000.00000 0 11120289.380 -22903858.530 1179303.901 10 0 60102 81900.00000 0 10921289.943 -22937518.976 -2057808.131 10 0 60102 82800.00000 0 10577154.900 -22586917.351 -5254847.091 10 0 60102 83700.00000 0 10144295.503 -21842038.480 -8349563.352 10 0 60102 84600.00000 0 9680907.775 -20706413.614 -11281716.706 10 0 60102 85500.00000 0 9244305.167 -19197119.246 -13994257.728 10 0 60103 0.00000 0 8888301.653 -17344220.415 -16434443.781 10 0 60103 900.00000 0 8660756.943 -15189680.986 -18554868.572 10 0 60103 1800.00000 0 8601388.906 -12785789.461 -20314381.751 10 0 60103 2700.00000 0 8739945.374 -10193163.459 -21678885.203 10 0 60103 3600.00000 0 9094813.055 -7478419.075 -22621987.793 10 0 60103 4500.00000 0 9672121.739 -4711601.760 -23125507.986 10 0 60103 5400.00000 0 10465381.081 -1963485.937 -23179815.417 10 0 60103 6300.00000 0 11455664.712 697144.633 -22784005.823 10 0 60103 7200.00000 0 12612333.376 3206123.325 -21945907.009 10 0 60103 8100.00000 0 13894266.298 5506325.979 -20681916.594 10 0 60103 9000.00000 0 15251548.881 7549795.718 -19016675.379 10 0 60103 9900.00000 0 16627545.828 9299480.651 -16982583.094 10 0 60103 10800.00000 0 17961272.922 10730514.064 -14619166.144 10 0 60103 11700.00000 0 19189968.288 11830985.784 -11972309.568 10 0 60103 12600.00000 0 20251755.723 12602174.427 -9093367.979 10 0 60103 13500.00000 0 21088288.848 13058232.694 -6038172.431 10 0 60103 14400.00000 0 21647265.617 13225340.445 -2865952.100 10 0 60103 15300.00000 0 21884708.051 13140362.362 361808.628 10 0 60103 16200.00000 0 21766911.783 12849067.548 3582555.920 10 0 60103 17100.00000 0 21271983.668 12403986.527 6733872.508 10 0 60103 18000.00000 0 20390902.794 11861996.159 9754680.943 10 0 60103 18900.00000 0 19128059.965 11281734.214 12586421.167 10 0 60103 19800.00000 0 17501252.345 10720952.396 15174180.070 10 0 60103 20700.00000 0 15541132.491 10233919.075 17467751.513 10 0 60103 21600.00000 0 13290133.594 9868980.951 19422606.772 10 0 60103 22500.00000 0 10800914.342 9666386.155 21000757.022 10 0 60103 23400.00000 0 8134386.728 9656460.543 22171491.444 10 0 60103 24300.00000 0 5357407.324 9858214.256 22911976.853 10 0 60103 25200.00000 0 2540226.524 10278437.794 23207707.232 10 0 60103 26100.00000 0 -246199.582 10911326.623 23052794.160 10 0 60103 27000.00000 0 -2932924.214 11738651.326 22450092.024 10 0 60103 27900.00000 0 -5455639.870 12730467.601 21411154.779 10 0 60103 28800.00000 0 -7757114.542 13846337.766 19956024.121 10 0 60103 29700.00000 0 -9789333.166 15037013.836 18112852.074 10 0 60103 30600.00000 0 -11515255.220 16246512.572 15917364.169 10 0 60103 31500.00000 0 -12910115.090 17414495.974 13412172.624 10 0 60103 32400.00000 0 -13962210.780 18478857.326 10645952.061 10 0 60103 33300.00000 0 -14673147.985 19378403.664 7672493.290 10 0 60103 34200.00000 0 -15057529.422 20055520.889 4549653.511 10 0 60103 35100.00000 0 -15142103.024 20458708.022 1338223.688 10 0 60103 36000.00000 0 -14964405.613 20544872.312 -1899264.116 10 0 60103 36900.00000 0 -14570960.426 20281286.843 -5099765.141 10 0 60103 37800.00000 0 -14015105.985 19647126.596 -8200960.876 10 0 60103 38700.00000 0 -13354549.613 18634516.936 -11142483.110 10 0 60103 39600.00000 0 -12648750.680 17249049.389 -13867098.000 10 0 60103 40500.00000 0 -11956245.689 15509742.396 -16321826.079 10 0 60103 41400.00000 0 -11332029.551 13448448.409 -18458975.802 10 0 60103 42300.00000 0 -10825104.587 11108732.285 -20237070.190 10 0 60103 43200.00000 0 -10476301.231 8544268.150 -21621648.736 10 0 60103 44100.00000 0 -10316462.393 5816822.028 -22585929.522 10 0 60103 45000.00000 0 -10365067.701 2993904.715 -23111319.482 10 0 60103 45900.00000 0 -10629354.855 146192.708 -23187763.935 10 0 60103 46800.00000 0 -11103974.283 -2655175.707 -22813929.686 10 0 60103 47700.00000 0 -11771190.659 -5341317.343 -21997219.204 10 0 60103 48600.00000 0 -12601622.016 -7848222.018 -20753616.490 10 0 60103 49500.00000 0 -13555484.699 -10119163.978 -19107368.318 10 0 60103 50400.00000 0 -14584291.414 -12106808.141 -17090507.514 10 0 60103 51300.00000 0 -15632930.808 -13774925.333 -14742227.697 10 0 60103 52200.00000 0 -16642041.269 -15099646.936 -12108121.616 10 0 60103 53100.00000 0 -17550579.391 -16070208.525 -9239297.680 10 0 60103 54000.00000 0 -18298475.493 -16689153.187 -6191391.551 10 0 60103 54900.00000 0 -18829264.966 -16971987.664 -3023491.569 10 0 60103 55800.00000 0 -19092585.171 -16946307.024 203001.480 10 0 60103 56700.00000 0 -19046433.169 -16650425.673 3425558.530 10 0 60103 57600.00000 0 -18659089.477 -16131572.907 6581727.789 10 0 60103 58500.00000 0 -17910626.880 -15443729.294 9610338.651 10 0 60103 59400.00000 0 -16793940.528 -14645194.998 12452681.043 10 0 60103 60300.00000 0 -15315255.400 -13795992.273 15053637.805 10 0 60103 61200.00000 0 -13494088.844 -12955211.140 17362748.555 10 0 60103 62100.00000 0 -11362668.469 -12178409.587 19335184.931 10 0 60103 63000.00000 0 -8964828.151 -11515177.308 20932618.716 10 0 60103 63900.00000 0 -6354426.497 -11006965.208 22123966.361 10 0 60103 64800.00000 0 -3593351.869 -10685271.854 22885995.696 10 0 60103 65700.00000 0 -749195.189 -10570263.342 23203783.067 10 0 60103 66600.00000 0 2107314.387 -10669885.044 23071011.798 10 0 60103 67500.00000 0 4905005.777 -10979503.350 22490105.667 10 0 60103 68400.00000 0 7574983.462 -11482093.482 21472194.066 10 0 60103 69300.00000 0 10053253.987 -12148966.622 20036908.494 10 0 60103 70200.00000 0 12283152.719 -12941006.931 18212013.268 10 0 60103 71100.00000 0 14217470.034 -13810367.447 16032876.404 10 0 60103 72000.00000 0 15820188.158 -14702554.195 13541789.959 10 0 60103 72900.00000 0 17067755.952 -15558811.044 10787152.197 10 0 60103 73800.00000 0 17949848.111 -16318704.656 7822526.947 10 0 60103 74700.00000 0 18469576.867 -16922799.853 4705598.407 10 0 60103 75600.00000 0 18643147.482 -17315311.426 1497042.019 10 0 60103 76500.00000 0 18498972.535 -17446619.032 -1740665.880 10 0 60103 77400.00000 0 18076283.150 -17275537.366 -4944475.362 10 0 60103 78300.00000 0 17423296.900 -16771244.160 -8052002.034 10 0 60103 79200.00000 0 16595021.160 -15914783.066 -11002752.530 10 0 60103 80100.00000 0 15650786.190 -14700076.829 -13739311.206 10 0 60103 81000.00000 0 14651613.672 -13134407.078 -16208463.948 10 0 60103 81900.00000 0 13657533.123 -11238339.953 -18362236.510 10 0 60103 82800.00000 0 12724960.483 -9045100.401 -20158826.885 10 0 60103 83700.00000 0 11904250.026 -6599421.351 -21563413.703 10 0 60103 84600.00000 0 11237522.890 -3955915.982 -22548825.468 10 0 60103 85500.00000 0 10756863.319 -1177041.221 -23096058.437 99